Location: The Saddle
(36.8333°N, 80.3417°W)
Time: 02:31:34
(UTC-05:00)

AO-7 - Pass Details

Date: 20 December 2023
Orbit: 1440 x 1458 km, 102.0° (Epoch: 01 March)

Event Time Altitude Azimuth Distance (km) Brightness Sun altitude
Rises 03:55:39 0° 35° (NE) 4,544 ? -41.9°
Reaches altitude 10° 03:59:44 10° 54° (NE) 3,564 ? -41.1°
Maximum altitude 04:04:55 18° 93° (E) 2,998 ? -40.0°
Drops below altitude 10° 04:10:05 10° 132° (SE) 3,561 ? -39.0°
Sets 04:14:06 0° 151° (SSE) 4,538 ? -38.2°
